Wind_Speed
21 20 22 25 24 22 20 22 21 20 17 13 12 14 15 16 17 17 18 20 21 24 24 22 21 22 16 17 15 13 14 18 16 11 13 13 13 15 16 17 18 20 21
23 22 23 28 28 26 22 22 21 18 16 16 16 16 16 18 18 20 21 24 25 26 27 26 23 22 20 17 12 16 18 17 18 16 11 14 17 20 21 22 22 22 22
27 27 26 29 30 29 25 22 21 20 18 17 16 15 14 18 21 23 24 26 29 30 30 29 26 23 21 20 15 16 19 19 19 19 16 16 19 20 22 24 24 25 26
26 30 29 28 29 28 27 26 25 22 21 22 20 20 21 23 24 26 27 29 32 33 32 31 29 26 24 23 21 17 20 21 21 20 18 19 18 22 26 26 25 26 26
24 27 29 27 27 32 31 28 28 27 27 26 26 25 26 27 25 27 29 30 32 34 33 31 29 27 27 25 23 21 19 23 23 24 22 21 23 25 29 30 31 30 31
19 25 28 30 30 34 34 32 31 30 30 31 30 31 30 28 26 26 28 28 29 30 33 30 28 26 26 27 25 28 22 24 23 25 27 26 25 28 29 28 31 33 34
24 22 23 31 33 34 35 34 34 34 34 33 32 32 30 28 27 25 25 25 25 29 32 31 29 25 24 28 28 31 24 24 27 28 28 24 26 29 30 31 32 35 37
27 26 26 26 34 35 36 37 36 36 35 33 33 32 30 30 27 22 22 25 28 32 30 31 29 24 24 27 28 28 23 24 25 27 30 28 30 30 32 35 38 40 37
27 25 25 28 30 36 39 39 39 37 35 35 34 32 29 27 22 20 22 25 33 32 31 31 31 27 21 26 27 24 22 23 23 25 27 28 30 32 34 37 38 43 41
28 22 18 28 32 33 37 40 40 39 38 37 34 28 26 23 24 22 27 30 35 32 30 30 29 23 17 26 22 22 20 18 23 25 27 28 31 33 36 39 40 39 37
28 25 22 20 28 34 34 38 40 41 40 36 31 27 25 23 24 27 27 30 33 31 29 28 24 19 19 18 18 18 20 21 24 27 29 32 34 38 39 38 36 34 33
33 32 33 30 32 30 39 39 40 40 38 37 31 28 28 26 27 27 28 28 30 28 26 26 19 19 18 21 21 21 23 25 27 28 30 35 37 35 31 28 28 32 32
33 33 35 34 38 39 35 44 43 40 40 37 29 32 30 25 26 28 26 26 26 26 25 21 21 20 20 21 23 24 24 24 26 30 33 33 31 27 27 27 28 27 28
47 40 38 36 38 38 39 40 44 45 41 31 26 29 28 30 31 25 25 24 25 25 21 22 21 20 18 22 22 20 21 24 27 30 29 25 18 20 22 25 25 26 28
46 44 43 39 34 30 27 38 42 40 43 26 27 31 28 27 25 22 24 25 23 23 20 22 21 20 21 19 19 20 23 25 27 23 22 20 18 20 22 24 25 27 28
41 42 42 43 43 43 31 28 40 38 16 25 23 21 21 20 23 20 27 27 24 22 19 20 20 19 19 19 20 22 22 23 20 19 19 21 21 23 24 25 26 28 28
35 36 42 41 38 37 24 15 23 10 24 19 20 18 17 16 21 29 31 23 20 17 17 17 18 18 20 20 21 19 19 19 20 20 19 20 21 23 23 23 25 25 23
31 31 31 27 28 17 23 30 21 18 12 12 13 12 18 25 25 24 23 18 16 16 16 17 19 20 20 17 16 17 18 18 20 21 22 22 23 22 22 22 22 22 23
27 21 19 21 20 17 15 15 12 20 17 20 20 20 21 22 19 18 15 17 16 16 18 17 17 17 16 16 18 18 18 20 22 23 24 23 21 19 19 20 19 21 23
17 20 18 18 17 13 8 10 16 21 22 20 17 23 19 16 15 13 15 17 18 18 18 18 17 16 17 18 18 18 18 18 20 21 21 19 18 17 16 16 18 20 22
14 14 15 15 12 12 12 11 11 12 10 12 15 14 13 13 10 12 15 13 17 17 19 18 17 16 18 18 18 19 20 18 16 17 16 15 15 14 14 15 17 19 21
16 16 15 12 14 17 20 14 17 16 15 15 11 9 10 5 8 9 14 18 17 16 15 14 16 19 18 19 19 19 18 17 16 15 14 14 12 12 13 15 16 18 19
9 7 6 6 4 8 15 15 15 16 13 13 10 11 11 10 13 13 15 18 19 16 16 15 17 17 14 16 19 16 16 15 13 12 12 12 12 11 12 14 15 16 18
18 17 11 13 16 16 20 21 16 16 14 13 10 12 13 15 19 19 20 21 21 19 16 13 13 15 13 15 16 14 16 14 12 11 11 12 11 11 12 13 14 16 16
25 29 19 14 20 17 12 16 17 17 17 15 12 14 19 21 20 22 20 21 19 16 12 14 13 13 13 14 15 14 15 13 11 11 11 11 11 11 12 12 13 15 15
7 15 12 11 11 13 13 13 14 17 17 19 16 20 20 19 19 22 21 17 17 16 16 16 13 14 13 11 14 16 14 12 11 11 11 11 12 11 11 12 12 13 14
Wind_Direction
214 224 220 207 201 204 203 190 190 193 200 207 220 234 247 264 278 289 295 297 299 301 307 313 320 332 342 344 338 303 289 308 303 289 277 269 280 289 286 284 295 302 303
213 222 220 211 206 207 203 198 201 206 215 218 228 238 247 259 273 286 294 300 302 301 300 307 312 316 327 324 333 317 292 294 299 295 278 271 280 286 292 294 295 295 292
214 220 221 215 213 212 211 208 215 221 229 238 248 258 267 275 281 288 293 296 299 298 297 300 301 303 312 311 315 314 287 284 291 295 281 290 289 279 275 278 277 279 286
216 221 223 219 218 212 215 219 222 228 237 247 252 261 269 277 283 289 293 295 296 296 294 294 295 298 304 312 312 296 277 278 283 283 281 286 291 291 286 282 275 280 283
218 221 225 221 217 215 217 219 227 232 241 249 256 263 269 273 279 286 289 292 292 291 289 287 286 291 297 297 296 292 263 269 276 277 281 284 295 296 293 286 282 285 287
219 226 225 221 220 217 217 225 233 238 243 248 252 259 265 271 275 278 282 283 285 290 290 287 281 282 290 291 292 296 265 258 266 271 271 283 288 297 294 293 290 291 291
226 228 228 224 224 224 220 221 229 237 245 248 252 257 263 268 269 267 268 278 281 281 288 292 285 281 282 285 286 290 278 265 269 274 274 285 287 298 290 292 290 292 295
235 238 234 230 228 227 225 224 229 233 236 244 252 258 263 266 266 251 263 270 273 278 282 284 281 275 278 279 284 281 279 274 279 281 286 289 285 288 289 291 294 294 292
232 235 236 237 234 230 227 227 230 234 237 243 251 257 261 261 248 252 265 273 271 277 277 280 283 281 275 277 274 280 275 276 275 278 286 291 290 284 285 287 296 299 301
231 232 241 236 234 235 236 233 234 238 242 247 251 251 253 240 248 269 271 280 274 282 283 286 287 279 274 267 270 274 276 278 278 287 288 284 283 281 285 291 294 292 290
236 238 249 256 244 234 238 239 238 238 242 245 246 243 225 239 253 267 270 276 283 282 282 287 290 292 280 265 269 267 272 272 281 286 284 286 288 289 293 294 293 294 294
249 250 252 257 260 251 237 240 243 241 240 242 241 226 225 248 259 270 271 276 279 282 286 292 292 283 279 266 270 270 272 277 285 286 289 293 294 297 295 292 290 292 293
243 246 248 250 247 257 251 242 244 244 238 238 237 235 230 258 263 266 276 277 279 280 286 286 288 285 277 264 267 274 279 282 286 290 293 294 298 293 290 293 292 292 295
245 247 245 237 240 247 254 252 244 245 232 220 243 227 244 251 262 265 271 275 278 280 280 286 287 282 268 272 275 272 278 285 287 293 293 298 288 290 291 289 295 300 299
238 238 241 238 243 246 255 255 246 239 225 229 230 226 240 256 267 277 283 280 279 278 281 283 277 272 274 270 272 281 286 289 294 300 303 302 294 291 295 300 307 307 305
238 235 231 235 233 237 240 243 242 233 228 210 213 233 251 274 277 281 286 279 278 276 275 273 270 269 271 276 279 283 288 295 299 300 299 298 299 300 303 307 309 307 306
230 232 241 242 236 225 217 221 246 163 220 226 231 227 247 270 283 283 283 271 271 271 265 264 266 271 274 278 283 290 293 292 293 295 293 293 298 301 305 307 304 303 302
234 242 238 243 244 232 234 244 203 245 240 232 243 262 275 287 289 276 267 263 261 260 263 266 271 276 277 280 280 283 286 288 290 294 299 303 306 307 308 305 305 302 304
250 215 196 183 178 177 152 143 188 230 240 270 271 276 279 277 263 262 260 252 257 265 269 273 274 272 273 276 283 291 297 299 303 303 304 308 308 305 302 302 302 307 312
164 176 192 196 210 211 199 211 212 231 259 259 259 264 255 269 262 248 248 257 265 266 270 272 271 270 269 277 285 293 293 294 297 300 302 300 298 298 299 299 308 313 313
169 172 176 178 199 210 203 211 225 231 226 232 240 245 251 256 252 251 251 261 274 274 272 271 271 267 274 282 286 290 288 290 293 293 289 291 296 301 303 309 316 317 316
206 207 211 224 243 257 269 242 249 240 246 245 241 250 259 257 269 267 258 269 286 284 271 271 267 264 269 278 281 281 281 283 285 284 289 299 306 306 309 315 318 319 321
186 218 237 252 243 269 283 268 250 263 235 230 236 251 240 275 298 293 286 288 287 284 270 269 266 262 258 265 273 277 276 279 283 289 297 300 301 307 310 314 318 321 326
194 173 189 218 274 254 247 251 223 212 206 213 235 245 248 284 292 287 286 291 290 285 282 269 279 286 286 264 269 279 286 290 293 294 296 298 301 303 305 313 317 325 328
242 232 220 231 236 235 234 231 219 227 201 216 237 262 273 280 275 281 278 285 283 292 284 286 272 289 283 262 272 280 283 285 289 292 293 294 296 297 302 311 316 323 323
284 178 194 211 229 236 246 258 253 261 265 251 259 260 263 265 271 280 278 268 276 286 285 284 285 280 276 248 257 273 282 284 287 288 288 289 290 291 297 306 312 317 319
Height
3160 3163 3166 3170 3173 3175 3178 3181 3183 3185 3188 3189 3191 3193 3195 3196 3196 3197 3197 3197 3196 3195 3194 3193 3192 3190 3188 3187 3185 3185 3185 3184 3182 3180 3180 3179 3178 3177 3176 3175 3174 3172 3170
3156 3159 3161 3165 3169 3171 3174 3177 3180 3181 3183 3185 3188 3189 3191 3192 3193 3193 3194 3193 3192 3191 3189 3189 3188 3187 3185 3183 3181 3180 3180 3180 3180 3178 3177 3176 3175 3173 3170 3168 3167 3166 3165
3151 3154 3156 3159 3163 3167 3171 3173 3175 3177 3178 3180 3182 3184 3186 3187 3188 3189 3189 3188 3187 3186 3184 3183 3183 3183 3182 3179 3178 3175 3175 3174 3174 3174 3172 3171 3170 3168 3166 3165 3164 3162 3158
3145 3148 3151 3153 3157 3162 3166 3168 3171 3172 3173 3175 3177 3179 3180 3181 3182 3183 3182 3182 3181 3180 3178 3177 3176 3176 3175 3174 3173 3170 3169 3169 3168 3168 3168 3166 3164 3162 3158 3156 3155 3153 3152
3138 3141 3144 3148 3153 3156 3159 3162 3165 3167 3168 3170 3171 3172 3174 3175 3177 3177 3177 3176 3174 3172 3171 3170 3169 3169 3170 3169 3167 3166 3164 3164 3163 3162 3161 3159 3158 3155 3151 3148 3146 3144 3142
3132 3135 3139 3142 3145 3148 3152 3155 3158 3160 3162 3163 3165 3166 3168 3169 3171 3171 3170 3169 3168 3166 3163 3163 3163 3163 3164 3162 3160 3158 3156 3157 3157 3155 3154 3153 3151 3148 3144 3141 3138 3135 3132
3126 3130 3132 3135 3138 3141 3145 3148 3151 3153 3155 3156 3158 3159 3161 3162 3162 3163 3163 3162 3162 3160 3157 3155 3154 3155 3156 3155 3154 3152 3151 3150 3149 3148 3146 3146 3143 3141 3137 3134 3131 3127 3125
3119 3122 3125 3128 3130 3134 3137 3141 3143 3145 3148 3149 3150 3152 3153 3154 3155 3155 3156 3155 3154 3152 3151 3149 3147 3147 3149 3148 3147 3145 3143 3143 3143 3141 3139 3138 3136 3133 3129 3125 3122 3118 3114
3111 3114 3117 3120 3122 3125 3128 3131 3135 3137 3140 3141 3144 3144 3145 3146 3147 3148 3148 3147 3146 3145 3143 3142 3141 3140 3141 3141 3139 3138 3137 3137 3136 3135 3133 3130 3127 3124 3121 3116 3113 3108 3105
3103 3106 3108 3110 3114 3116 3120 3123 3126 3129 3131 3133 3134 3136 3136 3138 3141 3141 3140 3140 3138 3137 3136 3136 3135 3134 3133 3132 3132 3131 3131 3132 3130 3128 3126 3122 3120 3116 3112 3108 3104 3100 3096
3096 3098 3099 3101 3104 3108 3111 3113 3116 3119 3121 3123 3123 3126 3129 3131 3132 3133 3132 3131 3131 3129 3128 3127 3126 3124 3125 3125 3126 3125 3125 3124 3122 3119 3116 3113 3112 3108 3104 3100 3096 3092 3087
3087 3087 3090 3092 3095 3096 3099 3102 3104 3106 3109 3110 3113 3116 3120 3123 3124 3124 3124 3124 3122 3122 3122 3120 3120 3119 3119 3119 3119 3118 3117 3117 3114 3112 3109 3106 3102 3098 3095 3092 3088 3084 3080
3074 3077 3079 3080 3082 3085 3086 3088 3091 3095 3096 3099 3102 3105 3114 3116 3116 3116 3116 3115 3116 3116 3115 3114 3115 3114 3112 3113 3112 3111 3110 3109 3108 3106 3103 3098 3093 3091 3088 3085 3082 3078 3074
3062 3064 3067 3068 3069 3071 3073 3074 3078 3080 3083 3085 3089 3098 3106 3107 3109 3108 3107 3107 3109 3108 3108 3108 3107 3107 3107 3106 3105 3103 3102 3100 3099 3096 3095 3092 3088 3085 3083 3079 3075 3072 3068
3048 3048 3052 3057 3059 3060 3060 3062 3066 3067 3059 3072 3079 3091 3095 3098 3100 3101 3102 3102 3102 3101 3101 3101 3101 3101 3101 3100 3099 3099 3097 3095 3094 3090 3087 3085 3082 3079 3076 3072 3068 3065 3061
3037 3039 3038 3038 3041 3047 3042 3049 3054 3049 3035 3061 3071 3080 3086 3088 3093 3096 3097 3096 3095 3095 3095 3095 3094 3094 3095 3096 3095 3094 3092 3091 3088 3084 3082 3079 3076 3072 3069 3066 3062 3058 3055
3026 3027 3030 3026 3018 3033 3035 3037 3042 3034 3067 3067 3070 3074 3075 3082 3084 3085 3086 3088 3087 3089 3089 3089 3089 3090 3090 3090 3090 3088 3087 3084 3081 3079 3077 3074 3070 3067 3064 3061 3057 3054 3050
3020 3019 3024 3025 3013 3029 3029 3028 3042 3071 3068 3066 3068 3068 3071 3073 3074 3074 3080 3080 3080 3082 3083 3084 3084 3085 3085 3084 3084 3082 3080 3079 3077 3074 3070 3067 3063 3060 3058 3055 3052 3049 3045
3013 3013 3024 3028 3027 3031 3029 3032 3046 3059 3061 3059 3061 3062 3065 3067 3068 3069 3071 3075 3075 3076 3078 3078 3079 3079 3078 3078 3077 3075 3072 3071 3069 3066 3063 3060 3057 3055 3053 3050 3048 3044 3040
3014 3021 3028 3029 3030 3029 3028 3031 3038 3050 3051 3055 3055 3054 3060 3062 3064 3065 3067 3069 3070 3071 3071 3073 3072 3071 3072 3071 3069 3068 3067 3064 3064 3062 3059 3056 3053 3051 3049 3046 3043 3040 3036
3019 3021 3025 3028 3029 3029 3032 3034 3039 3043 3047 3052 3051 3052 3056 3059 3060 3061 3063 3065 3066 3066 3067 3068 3067 3065 3065 3064 3063 3062 3062 3060 3059 3058 3055 3052 3050 3047 3045 3042 3040 3036 3032
3017 3018 3022 3024 3026 3028 3030 3032 3034 3043 3045 3049 3049 3050 3051 3052 3055 3058 3059 3061 3060 3060 3061 3061 3062 3060 3059 3059 3058 3057 3057 3055 3054 3052 3049 3047 3045 3043 3041 3039 3036 3033 3029
3015 3017 3018 3019 3022 3024 3028 3031 3034 3038 3042 3044 3045 3048 3048 3050 3051 3054 3054 3055 3056 3055 3054 3055 3055 3056 3055 3053 3053 3052 3052 3051 3048 3046 3044 3043 3041 3040 3038 3036 3033 3030 3027
3013 3013 3016 3020 3023 3025 3025 3027 3030 3033 3036 3041 3042 3044 3045 3045 3047 3049 3049 3050 3049 3049 3048 3048 3049 3050 3050 3048 3047 3047 3046 3045 3043 3041 3040 3039 3038 3037 3035 3033 3030 3027 3024
3010 3010 3013 3017 3019 3020 3023 3024 3025 3029 3031 3035 3038 3040 3040 3039 3041 3043 3043 3044 3045 3044 3044 3043 3045 3045 3046 3043 3042 3041 3041 3040 3038 3037 3036 3035 3035 3034 3032 3030 3028 3025 3022
3006 3008 3011 3015 3016 3016 3019 3023 3025 3025 3027 3030 3032 3033 3034 3035 3035 3037 3037 3038 3038 3039 3039 3038 3038 3041 3040 3038 3038 3037 3036 3035 3034 3033 3032 3031 3031 3030 3029 3027 3025 3023 3020